Showing default

SPHEREX, 63182

Orbit data source: Space-Track

SPHEREX, 63182 is a payload satellite owned by JPL (US) in SSO that was launched on Wed, 12 Mar 2025 UTC via an FALCON 9 launch vehicle from the Air Force Western Test Range (AFWTR). Payload-class satellites include a variety of spacecraft equipped with specific instruments for various scientific and technological missions. These include communications satellites like Starlink; space stations such as the ISS; scientific satellites like the Hubble; Earth observation satellites from companies like Planet Labs, Umbra, and HawkEye 360; GPS; miniature CubeSats for education and research; and military/defense satellites.

Loading next visibility...
Identifier
63182, 2025-047E
Orbit
SSO
Country
Flag of USUS
Related business
Manufacturer
BAEB
Mission
Operational Civil Astronomy
Bus & Motor
SPHEREX, Unknown motor
Mass
502 kg wet, 502 kg dry
Launch date (UTC)
2025-03-12 (1 year ago)
Launch vehicle
FALCON 9
Launch site
Air Force Western Test Range (AFWTR)
Object type
Payload
Rocket body
Debris
Shape & HBR
Box + 1 Pan, 2.7 m
Radar Cross Section
0.625 m², Large (>1 m²)

Expand to show TLE details & history
Last TLE update: 10 hours ago

TLE from 10 hours ago
0 SPHEREX
1 63182U 25047E   26171.44423838  .00000700  00000-0  11388-3 0  9992
2 63182  97.9578 356.2091 0010421 175.0871 185.0442 14.74069015 68522
Epoch: 2026-06-20T10:39Z
TLE epoch observation values (Epoch: 2026-06-20T10:39:42.196Z)
Latitude
0.00004°
Longitude
-72.3755°
Altitude
658.415 km
Speed
7.524 km/s
True Right ascension
23h 44m 50s
True Declination
0° 00' 00"
Sunlit
Object was in daylight at epoch
Visualization orbit readout
Latitude
Unknown
Longitude
Unknown
Altitude
Unknown
Speed
Unknown
Apparent Right ascension
Unknown
Apparent Declination
Unknown
Sunlit
N/A
Visualization observer readout
Local Sidereal Time
07:19:29
Azimuth
Unknown
Elevation
Unknown
Doppler factor
Unknown
Orbital elements
Apogee altitude
652.478 km
Perigee altitude
637.841 km
Semi-major axis
7,023.296 km
Eccentricity
0.00104
Inclination
97.9578°
RAAN
356.2091°
Arg. of periapsis
175.0871°
True anomaly
185.03371°
Mean anomaly
185.0442°
Eccentric anomaly
185.03896°
Mean motion
3.6875 °/min
Orbital period
97.63 mins
BSTAR
0.00011388
Loading maneuver chart data...
Computing Atmospheric mass density...
Loading historical data...
Loading historical data...
Loading historical data...
Loading historical data...
Loading historical data...
Loading historical data...
Loading historical data...
Other satellites on launch #47 in the year 2025 (2025-03-12 UTC)

Documentation

Showing up to 5 results
|